This is the latest recevied weather packets stored in our database for station/object KA4YMY. If no packets are shown the sender has not sent any weather packets the latest 10 day(s).
| Time | Temp. | Humidity | Pressure | Rain* | Wind** | Luminosity | Snow |
|---|---|---|---|---|---|---|---|
| 1777884916 | 9.44° C | 74% | 1016.4 hPa | 0 mm | - | - | - |
| 1777884316 | 10° C | 72% | 1016.4 hPa | 0 mm | - | - | - |
| 1777883716 | 10° C | 72% | 1016.2 hPa | 0 mm | - | - | - |
| 1777883116 | 10.56° C | 71% | 1016.1 hPa | 0 mm | - | - | - |
| 1777882516 | 10.56° C | 69% | 1016 hPa | 0 mm | - | - | - |
| 1777881915 | 11.11° C | 69% | 1015.9 hPa | 0 mm | - | - | - |
| 1777881315 | 11.11° C | 68% | 1016.1 hPa | 0 mm | - | - | - |
| 1777880716 | 11.67° C | 67% | 1016.1 hPa | 0 mm | - | - | - |
| 1777880115 | 11.67° C | 66% | 1016.2 hPa | 0 mm | - | - | - |
| 1777879516 | 12.22° C | 66% | 1016.3 hPa | 0 mm | - | - | - |
| 1777878916 | 11.67° C | 66% | 1016.1 hPa | 0 mm | - | - | - |
| 1777878317 | 10.56° C | 69% | 1016 hPa | 0 mm | - | - | - |
| 1777877718 | 10° C | 70% | 1016.2 hPa | 0 mm | - | - | - |
| 1777877118 | 10° C | 72% | 1016.2 hPa | 0 mm | - | - | - |
| 1777876517 | 10.56° C | 72% | 1016.4 hPa | 0 mm | - | - | - |
| 1777875918 | 10.56° C | 71% | 1016.6 hPa | 0 mm | - | - | - |
| 1777875317 | 10.56° C | 70% | 1016.6 hPa | 0 mm | - | - | - |
| 1777874717 | 11.11° C | 70% | 1016.5 hPa | 0 mm | - | - | - |
| 1777874117 | 11.11° C | 69% | 1016.6 hPa | 0 mm | - | - | - |
| 1777873517 | 11.67° C | 68% | 1016.8 hPa | 0 mm | - | - | - |
| 1777872917 | 11.67° C | 66% | 1016.7 hPa | 0 mm | - | - | - |
| 1777872317 | 11.67° C | 66% | 1016.5 hPa | 0 mm | - | - | - |
| 1777871717 | 12.22° C | 67% | 1016.3 hPa | 0 mm | - | - | - |
| 1777871117 | 12.22° C | 66% | 1016.3 hPa | 0 mm | - | - | - |
| 1777870517 | 12.22° C | 66% | 1016.5 hPa | 0 mm | - | - | - |
* Rain latest hour (hover to see other rain measurements)
** Current wind speed in m/s (hover to see current wind gust speed)